Location: Caltech
(34.1382°N, 118.1253°W)
Time: 14:11:44
(UTC-07:00)

SO-50 - Visible Passes

Search period start: 02 September 2014 00:00
Search period end: 12 September 2014 00:00
Orbit: 608 x 689 km, 64.6° (Epoch: 01 September)

Date Brightness Start Highest point End Pass type
(mag) Time Alt. Az. Time Alt. Az. Time Alt. Az.
02 Sep ? 03:44:55 21° N 03:44:55 21° N 03:46:40 10° NNE visible
03 Sep ? 04:11:09 14° NNW 04:11:09 14° NNW 04:12:24 10° N visible
04 Sep ? 02:59:37 12° NNE 02:59:37 12° NNE 02:59:53 10° NNE visible
05 Sep ? 03:25:47 11° N 03:25:47 11° N 03:25:59 10° N visible
